Regional Weather Roundup
Issued by NWS

Home | Current Version | Previous Version | Text Only | Print | Product List | Glossary Off
Versions: 1 2 3 4 5 6 7 8 9 10 11 12 13 14 15 16 17 18 19 20 21 22 23 24 25 26 27 28 29 30 31 32 33 34 35 36 37 38 39 40 41 42 43 44 45 46 47 48 49 50

440
ASUS43 KFSD 251402
RWRSD

WEATHER ROUNDUP FOR SOUTH DAKOTA
NATIONAL WEATHER SERVICE SIOUX FALLS SD
900 AM CDT TUE JUL 25 2017

NOTE: "FAIR" INDICATES FEW OR NO CLOUDS BELOW 12,000 FEET WITH NO
SIGNIFICANT WEATHER AND/OR OBSTRUCTIONS TO VISIBILITY.


SDZ001>005-009-010-012>017-251500-
NORTHWEST AND NORTH CENTRAL SOUTH DAKOTA

CITY           SKY/WX    TMP DP  RH WIND       PRES   REMARKS
BUFFALO          N/A     72  59  63 N20       29.89R
FAITH            N/A     79  62  56 NE17      29.87R
MOBRIDGE       CLOUDY    73  67  81 N12       29.86R
$$

SDZ012>016-024>037-041>051-057-063-072>074-251500-
SOUTHWEST AND SOUTH CENTRAL SOUTH DAKOTA

CITY           SKY/WX    TMP DP  RH WIND       PRES   REMARKS
RAPID CTY ARPT SUNNY     77  60  55 N7        29.96R
PIERRE         SUNNY     74  64  71 NE8       29.82F
CUSTER         CLOUDY    73  48  41 E14       30.10R
ELLSWORTH AFB  SUNNY     78  61  55 NW3       29.95R
PHILIP         SUNNY     77  64  64 E8        29.86S
PINE RIDGE     CLOUDY    78  64  61 SW5       29.93R
SPEARFISH      FAIR      75  59  57 VRB3      30.01R
WINNER         FAIR      84  62  47 NW16      29.88R
$$

SDZ004>011-016>023-039-040-251500-
NORTHEAST SOUTH DAKOTA

CITY           SKY/WX    TMP DP  RH WIND       PRES   REMARKS
ABERDEEN       MOSUNNY   71  68  90 NW5       29.88R
WATERTOWN      SUNNY     72  68  87 S12       29.88R
BROOKINGS      SUNNY     74  68  81 S14       29.89F
SISSETON         N/A     72  68  87 S8        29.87R
$$

SDZ017-020-022-023-036>040-048>070-251500-
SOUTHEAST SOUTH DAKOTA

CITY           SKY/WX    TMP DP  RH WIND       PRES   REMARKS
SIOUX FALLS    MOSUNNY   76  70  82 S17       29.91F
HURON          SUNNY     77  70  79 S7        29.85R
CHAMBERLAIN    SUNNY     83  65  53 W6        29.86R
MITCHELL       SUNNY     80  69  69 S8        29.85S
YANKTON        SUNNY     83  69  62 S17       29.90F
$$

ABBREVIATIONS USED IN REMARKS
   TC - TEMPERATURE IN CELSIUS
  WCI - WIND CHILL INDEX
   HX - HEAT INDEX
  VSB - VISIBILITY





USA.gov is the U.S. government's official web portal to all federal, state and local government web resources and services.